Location: Newark
(52.4787°S, 179.0532°W)
Time: 16:25:13
(UTC+00:00)

Transit 2A Rocket - Pass Details

Date: 24 November 2019
Orbit: 594 x 909 km, 66.7° (Epoch: 15 December)

Event Time Altitude Azimuth Distance (km) Brightness Sun altitude
Rises 00:01:18 0° 256° (WSW) 3,492 8.4 57.8°
Reaches altitude 10° 00:04:22 10° 241° (WSW) 2,588 7.7 57.7°
Maximum altitude 00:09:03 23° 191° (S) 1,874 7.0 57.6°
Drops below altitude 10° 00:13:49 10° 140° (SE) 2,627 7.6 57.4°
Sets 00:16:57 0° 125° (SE) 3,557 8.2 57.3°
